TimeEST,TemperatureF,Dew PointF,Humidity,Sea Level PressureIn,VisibilityMPH,Wind Direction,Wind SpeedMPH,Gust SpeedMPH,PrecipitationIn,Events,Conditions,WindDirDegrees,DateUTC
12:53 AM,27.0,19.0,72,30.32,10.0,West,5.8,-,N/A,,Overcast,280,2012-11-27 05:53:00
1:53 AM,28.9,18.0,64,30.31,10.0,NW,8.1,-,N/A,,Overcast,310,2012-11-27 06:53:00
2:53 AM,28.0,19.0,69,30.32,10.0,NW,6.9,-,N/A,,Overcast,310,2012-11-27 07:53:00
3:53 AM,25.0,18.0,75,30.32,10.0,NW,6.9,-,N/A,,Partly Cloudy,310,2012-11-27 08:53:00
4:53 AM,21.9,17.1,82,30.33,10.0,WNW,5.8,-,N/A,,Clear,300,2012-11-27 09:53:00
5:53 AM,21.9,16.0,78,30.34,10.0,WNW,3.5,-,N/A,,Clear,290,2012-11-27 10:53:00
6:53 AM,21.2,15.8,80,30.31,10.0,West,4.6,-,N/A,,Clear,280,2012-11-27 11:53:00
7:53 AM,18.0,12.9,81,30.35,10.0,Calm,Calm,-,N/A,,Clear,0,2012-11-27 12:53:00
8:53 AM,23.0,17.1,78,30.37,10.0,Calm,Calm,-,N/A,,Clear,0,2012-11-27 13:53:00
9:53 AM,27.0,17.1,66,30.37,10.0,West,3.5,-,N/A,,Clear,280,2012-11-27 14:53:00
10:53 AM,30.9,18.0,59,30.38,10.0,Calm,Calm,-,N/A,,Clear,0,2012-11-27 15:53:00
11:41 AM,32.0,17.6,55,30.34,10.0,North,-9999.0,-,N/A,,Clear,0,2012-11-27 16:41:00
11:53 AM,33.1,18.0,54,30.38,10.0,NW,3.5,-,N/A,,Clear,310,2012-11-27 16:53:00
12:53 PM,33.1,17.1,52,30.35,10.0,West,4.6,-,N/A,,Clear,270,2012-11-27 17:53:00
1:53 PM,35.1,16.0,46,30.32,10.0,West,8.1,-,N/A,,Clear,260,2012-11-27 18:53:00
2:53 PM,35.1,16.0,46,30.31,10.0,SW,8.1,-,N/A,,Clear,230,2012-11-27 19:53:00
3:53 PM,35.1,15.1,44,30.30,10.0,West,8.1,-,N/A,,Clear,260,2012-11-27 20:53:00
4:53 PM,32.0,15.1,50,30.29,10.0,SW,3.5,-,N/A,,Clear,230,2012-11-27 21:53:00
5:53 PM,30.9,15.1,52,30.28,10.0,SSW,3.5,-,N/A,,Clear,210,2012-11-27 22:53:00
6:53 PM,28.9,15.1,56,30.29,10.0,SSW,4.6,-,N/A,,Clear,200,2012-11-27 23:53:00
7:53 PM,28.0,15.1,58,30.28,10.0,SSW,5.8,-,N/A,,Clear,200,2012-11-28 00:53:00
8:53 PM,27.0,15.1,61,30.28,10.0,SSW,5.8,-,N/A,,Clear,210,2012-11-28 01:53:00
9:53 PM,26.1,16.0,66,30.28,10.0,SSW,4.6,-,N/A,,Clear,210,2012-11-28 02:53:00
10:53 PM,26.1,16.0,66,30.26,10.0,South,6.9,-,N/A,,Clear,190,2012-11-28 03:53:00
11:53 PM,27.0,17.1,66,30.24,10.0,SSW,8.1,-,N/A,,Clear,200,2012-11-28 04:53:00